Weather in Poretskoye

Russia / Vladimir Oblast     56°16′00″N   40°31′36″E
temp.,
°C
wind,
m/s
gust,
m/s
humid.,
%
clouds,
%
prec.,
mm/h
press.,
hPa
HPBL,
m
4 march, thu
thu400:00−1wsw51191100 0.1 1005650
03:00−2wsw71494100 0.3 1002659
06:00+1wsw91597100 1.6 997903
09:00+1w81598100 2.9 996917
12:000wnw71276100 1.8 9971115
15:00−1wnw588365 1.8 998890
18:00−4wnw488698 0.0 999247
21:00−8nw239587 0.1 100039
5 march, fri
fri500:00−9nw229347 0.0 100121
03:00−10nw229360 0.0 100321
06:00−11wnw239549 0.0 100421
09:00−10w249438 0.0 1006129
12:00−5wnw4791100 0.1 1006591
15:00−4wnw4784100 0.3 1008805
18:00−8wnw498739 0.0 1009189
21:00−11nw489119 0.0 1013159
6 march, sat
sat600:00−15nnw238829 0.0 101520
03:00−16wnw118715 0.0 101620
06:00−17w11840 0.0 101620
09:00−14w11830 0.0 101653
12:00−10nw237863 0.0 1016272
15:00−9nw248780 0.0 1015492
18:00−13wnw229138 0.0 101521
21:00−14w339019 0.0 101528
7 march, sun
sun700:00−14sw46900 0.0 101393
03:00−13ssw512890 0.0 1010259
06:00−10ssw7158885 0.0 1006506
09:00−8ssw8158993 0.1 1002816
12:00−5ssw91592100 0.6 9971160
15:00−4sw81492100 1.8 9941055
18:00−6wnw91587100 1.1 994954
21:00−10w4981100 1.3 997182
8 march, mon
mon800:00−11sw5128337 0.0 997321
03:00−8sw6138467 0.0 996512
06:00−9ssw51190100 0.0 994415
09:00−8sw5894100 0.4 994523
12:00−7wnw6990100 0.8 995770
15:00−7nw71191100 1.2 999880
18:00−10wnw61388100 0.1 1002649
21:00−12wnw5129173 0.1 1006341